RAJ401 WARR-WICC

Flight info

Callsign RAJ401
Flight time 1h 5m
Altitude 30000
Route LASEM CUCUT W16 KIDET CA
Aircraft B738/M-SDFGHIRWY/EB2

Departure

Time 2026-04-26 04:01
Airport Juanda International Airport (WARR)

Arrival

Time 2026-04-26 05:06
Airport Husein Sastranegara International Airport (WICC)
Time Latitude Longitude Altitude Speed Heading
2026-04-26 03:42 -7.38397 112.78306 28 ft 0 kts 189°
2026-04-26 03:43 -7.38392 112.78307 40 ft 2 kts 189°
2026-04-26 03:43 -7.38373 112.78310 47 ft 3 kts 189°
2026-04-26 03:44 -7.38356 112.78313 25 ft 2 kts 191°
2026-04-26 03:44 -7.38340 112.78319 28 ft 3 kts 230°
2026-04-26 03:44 -7.38332 112.78335 28 ft 3 kts 267°
2026-04-26 03:44 -7.38332 112.78349 28 ft 1 kts 278°
2026-04-26 03:45 -7.38333 112.78352 28 ft 0 kts 278°
2026-04-26 03:48 -7.38332 112.78345 28 ft 2 kts 278°
2026-04-26 03:49 -7.38329 112.78330 28 ft 3 kts 278°
2026-04-26 03:49 -7.38326 112.78306 28 ft 4 kts 278°
2026-04-26 03:49 -7.38321 112.78275 28 ft 5 kts 278°
2026-04-26 03:49 -7.38316 112.78238 28 ft 6 kts 278°
2026-04-26 03:50 -7.38309 112.78197 28 ft 6 kts 278°
2026-04-26 03:50 -7.38300 112.78153 28 ft 7 kts 283°
2026-04-26 03:50 -7.38289 112.78106 28 ft 7 kts 283°
2026-04-26 03:50 -7.38281 112.78056 28 ft 7 kts 279°
2026-04-26 03:51 -7.38272 112.78003 29 ft 8 kts 279°
2026-04-26 03:51 -7.38259 112.77958 29 ft 3 kts 314°
2026-04-26 03:51 -7.38239 112.77944 29 ft 4 kts 339°
2026-04-26 03:51 -7.38213 112.77944 29 ft 4 kts
2026-04-26 03:52 -7.38185 112.77948 29 ft 4 kts
2026-04-26 03:52 -7.38154 112.77952 29 ft 5 kts
2026-04-26 03:52 -7.38120 112.77957 28 ft 5 kts
2026-04-26 03:52 -7.38084 112.77962 28 ft 5 kts
2026-04-26 03:53 -7.38068 112.77956 28 ft 1 kts 307°
2026-04-26 03:53 -7.38064 112.77947 28 ft 2 kts 297°
2026-04-26 03:53 -7.38056 112.77930 28 ft 3 kts 290°
2026-04-26 03:53 -7.38051 112.77906 28 ft 4 kts 281°
2026-04-26 03:54 -7.38045 112.77876 28 ft 5 kts 281°
2026-04-26 03:54 -7.38039 112.77841 29 ft 5 kts 281°
2026-04-26 03:54 -7.38031 112.77802 29 ft 6 kts 281°
2026-04-26 03:54 -7.38025 112.77761 29 ft 6 kts 276°
2026-04-26 03:55 -7.38020 112.77718 29 ft 7 kts 276°
2026-04-26 03:55 -7.38014 112.77670 29 ft 7 kts 280°
2026-04-26 03:55 -7.38005 112.77621 29 ft 7 kts 280°
2026-04-26 03:55 -7.37996 112.77568 29 ft 8 kts 280°
2026-04-26 03:56 -7.37986 112.77512 29 ft 8 kts 280°
2026-04-26 03:56 -7.37976 112.77455 29 ft 9 kts 280°
2026-04-26 03:56 -7.37966 112.77395 29 ft 9 kts 280°
2026-04-26 03:56 -7.37956 112.77334 29 ft 9 kts 279°
2026-04-26 03:57 -7.37924 112.77291 29 ft 7 kts 333°
2026-04-26 03:57 -7.37879 112.77295 29 ft 6 kts 23°
2026-04-26 03:57 -7.37869 112.77300 29 ft 0 kts 26°
2026-04-26 03:59 -7.37858 112.77306 29 ft 7 kts 28°
2026-04-26 04:00 -7.37802 112.77359 29 ft 15 kts 55°
2026-04-26 04:00 -7.37780 112.77461 29 ft 23 kts 94°
2026-04-26 04:00 -7.37858 112.77930 30 ft 108 kts 100°
2026-04-26 04:00 -7.38031 112.78954 60 ft 175 kts 99°
2026-04-26 04:01 -7.38274 112.80218 455 ft 196 kts 102°
2026-04-26 04:01 -7.38607 112.81616 994 ft 212 kts 104°
2026-04-26 04:01 -7.38985 112.83085 1577 ft 218 kts 102°
2026-04-26 04:01 -7.39270 112.84598 2226 ft 222 kts 98°
2026-04-26 04:02 -7.39390 112.86183 2935 ft 232 kts 90°
2026-04-26 04:02 -7.39276 112.87841 3679 ft 239 kts 79°
2026-04-26 04:02 -7.38657 112.89386 4459 ft 244 kts 54°
2026-04-26 04:02 -7.37293 112.90411 5314 ft 249 kts 17°
2026-04-26 04:03 -7.35577 112.90409 6206 ft 250 kts 352°
2026-04-26 04:03 -7.33861 112.90111 7097 ft 251 kts 352°
2026-04-26 04:03 -7.32113 112.89796 7766 ft 266 kts 351°
2026-04-26 04:03 -7.30214 112.89486 8244 ft 282 kts 353°
2026-04-26 04:04 -7.28263 112.89209 8865 ft 289 kts 354°
2026-04-26 04:04 -7.26238 112.88948 9564 ft 293 kts 354°
2026-04-26 04:04 -7.24194 112.88700 10183 ft 299 kts 355°
2026-04-26 04:04 -7.22080 112.88452 10594 ft 310 kts 355°
2026-04-26 04:05 -7.19948 112.88207 11106 ft 315 kts 355°
2026-04-26 04:05 -7.17742 112.87955 11584 ft 321 kts 355°
2026-04-26 04:05 -7.15510 112.87625 12118 ft 326 kts 347°
2026-04-26 04:05 -7.13486 112.86592 12658 ft 333 kts 320°
2026-04-26 04:06 -7.12117 112.84701 13191 ft 338 kts 292°
2026-04-26 04:06 -7.11552 112.82425 13725 ft 341 kts 279°
2026-04-26 04:06 -7.11206 112.80049 14192 ft 344 kts 277°
2026-04-26 04:06 -7.10861 112.77642 14670 ft 347 kts 278°
2026-04-26 04:07 -7.10489 112.75252 15159 ft 349 kts 279°
2026-04-26 04:07 -7.10086 112.72818 15648 ft 351 kts 279°
2026-04-26 04:07 -7.09666 112.70374 16126 ft 354 kts 279°
2026-04-26 04:07 -7.09241 112.67945 16610 ft 357 kts 279°
2026-04-26 04:08 -7.08807 112.65493 17117 ft 359 kts 279°
2026-04-26 04:08 -7.08361 112.62983 17624 ft 362 kts 279°
2026-04-26 04:08 -7.07917 112.60495 18106 ft 365 kts 280°
2026-04-26 04:08 -7.07461 112.57950 18490 ft 367 kts 280°
2026-04-26 04:09 -7.07010 112.55443 18805 ft 370 kts 280°
2026-04-26 04:09 -7.06549 112.52877 19124 ft 372 kts 280°
2026-04-26 04:09 -7.06090 112.50324 19454 ft 374 kts 280°
2026-04-26 04:09 -7.05623 112.47729 19790 ft 376 kts 280°
2026-04-26 04:10 -7.05155 112.45130 20121 ft 377 kts 280°
2026-04-26 04:10 -7.04687 112.42526 20438 ft 379 kts 280°
2026-04-26 04:10 -7.04214 112.39900 20757 ft 381 kts 280°
2026-04-26 04:10 -7.03739 112.37268 21061 ft 383 kts 280°
2026-04-26 04:11 -7.03262 112.34620 21373 ft 385 kts 280°
2026-04-26 04:11 -7.02783 112.31964 21649 ft 387 kts 280°
2026-04-26 04:11 -7.02184 112.29320 21925 ft 388 kts 287°
2026-04-26 04:11 -7.01276 112.26757 22179 ft 390 kts 291°
2026-04-26 04:12 -7.00276 112.24213 22439 ft 391 kts 292°
2026-04-26 04:12 -6.99255 112.21658 22685 ft 393 kts 292°
2026-04-26 04:12 -6.98247 112.19131 22921 ft 394 kts 292°
2026-04-26 04:12 -6.97225 112.16564 23129 ft 396 kts 292°
2026-04-26 04:13 -6.96114 112.14032 23328 ft 397 kts 298°
2026-04-26 04:13 -6.94699 112.11640 23512 ft 397 kts 303°
2026-04-26 04:13 -6.93188 112.09310 23683 ft 398 kts 304°
2026-04-26 04:13 -6.91658 112.06986 23834 ft 399 kts 304°
2026-04-26 04:14 -6.90123 112.04654 23977 ft 400 kts 304°
2026-04-26 04:14 -6.88606 112.02344 24119 ft 401 kts 304°
2026-04-26 04:14 -6.87069 112.00000 24259 ft 400 kts 304°
2026-04-26 04:14 -6.85583 111.97679 24013 ft 389 kts 304°
2026-04-26 04:15 -6.84092 111.95409 23818 ft 393 kts 304°
2026-04-26 04:15 -6.82570 111.93106 23870 ft 397 kts 304°
2026-04-26 04:15 -6.81037 111.90778 24012 ft 399 kts 304°
2026-04-26 04:15 -6.79505 111.88447 24146 ft 400 kts 304°
2026-04-26 04:16 -6.77987 111.86133 24285 ft 401 kts 304°
2026-04-26 04:16 -6.76430 111.83759 24419 ft 401 kts 304°
2026-04-26 04:16 -6.74912 111.81444 24549 ft 402 kts 304°
2026-04-26 04:16 -6.73367 111.79086 24673 ft 403 kts 304°
2026-04-26 04:17 -6.71825 111.76734 24792 ft 403 kts 304°
2026-04-26 04:17 -6.70273 111.74366 24933 ft 404 kts 304°
2026-04-26 04:17 -6.68726 111.72006 25043 ft 404 kts 304°
2026-04-26 04:17 -6.67174 111.69640 25129 ft 405 kts 304°
2026-04-26 04:18 -6.65618 111.67267 25263 ft 406 kts 304°
2026-04-26 04:18 -6.64097 111.64947 25356 ft 406 kts 304°
2026-04-26 04:18 -6.62559 111.62604 25458 ft 406 kts 304°
2026-04-26 04:18 -6.61018 111.60219 25564 ft 407 kts 303°
2026-04-26 04:19 -6.59499 111.57818 25649 ft 407 kts 303°
2026-04-26 04:19 -6.57988 111.55402 25729 ft 408 kts 303°
2026-04-26 04:19 -6.56477 111.52978 25804 ft 409 kts 303°
2026-04-26 04:19 -6.54969 111.50559 25861 ft 410 kts 303°
2026-04-26 04:20 -6.53445 111.48118 25867 ft 412 kts 303°
2026-04-26 04:20 -6.51919 111.45680 25866 ft 414 kts 303°
2026-04-26 04:20 -6.50383 111.43229 25875 ft 415 kts 303°
2026-04-26 04:20 -6.48837 111.40765 25865 ft 416 kts 303°
2026-04-26 04:21 -6.47292 111.38304 25865 ft 417 kts 303°
2026-04-26 04:21 -6.45737 111.35828 25879 ft 418 kts 303°
2026-04-26 04:21 -6.44185 111.33356 25881 ft 418 kts 303°
2026-04-26 04:21 -6.42627 111.30875 25867 ft 419 kts 303°
2026-04-26 04:22 -6.41072 111.28399 25879 ft 419 kts 303°
2026-04-26 04:22 -6.39534 111.25950 25878 ft 420 kts 303°
2026-04-26 04:22 -6.37971 111.23462 25868 ft 420 kts 303°
2026-04-26 04:22 -6.36412 111.20980 25868 ft 420 kts 303°
2026-04-26 04:23 -6.34848 111.18491 25870 ft 420 kts 303°
2026-04-26 04:23 -6.33844 111.16895 25875 ft 420 kts 303°
2026-04-26 04:23 -6.32283 111.14411 25866 ft 421 kts 303°
2026-04-26 04:23 -6.30836 111.11844 25875 ft 421 kts 295°
2026-04-26 04:24 -6.29914 111.09045 25866 ft 422 kts 282°
2026-04-26 04:24 -6.29504 111.05147 25866 ft 426 kts 272°
2026-04-26 04:24 -6.29453 111.03140 25868 ft 424 kts 270°
2026-04-26 04:24 -6.29513 110.99237 25861 ft 410 kts 269°
2026-04-26 04:25 -6.29554 110.97401 25859 ft 392 kts 269°
2026-04-26 04:25 -6.29587 110.94642 25879 ft 401 kts 269°
2026-04-26 04:25 -6.29609 110.91833 25879 ft 413 kts 270°
2026-04-26 04:25 -6.29627 110.88919 25878 ft 422 kts 270°
2026-04-26 04:26 -6.29641 110.85927 25869 ft 429 kts 270°
2026-04-26 04:26 -6.29655 110.82916 25869 ft 435 kts 270°
2026-04-26 04:26 -6.29669 110.79856 25877 ft 439 kts 270°
2026-04-26 04:26 -6.29683 110.76769 25872 ft 443 kts 270°
2026-04-26 04:27 -6.29697 110.73665 25866 ft 446 kts 270°
2026-04-26 04:27 -6.29711 110.70534 25868 ft 448 kts 270°
2026-04-26 04:27 -6.29726 110.67397 25863 ft 450 kts 270°
2026-04-26 04:27 -6.29740 110.64243 25867 ft 452 kts 270°
2026-04-26 04:28 -6.29754 110.61077 25866 ft 453 kts 270°
2026-04-26 04:28 -6.29768 110.57912 25872 ft 454 kts 270°
2026-04-26 04:28 -6.29782 110.54743 25863 ft 454 kts 270°
2026-04-26 04:28 -6.29796 110.51599 25878 ft 454 kts 270°
2026-04-26 04:29 -6.29809 110.48419 25861 ft 455 kts 270°
2026-04-26 04:29 -6.29822 110.45231 25863 ft 453 kts 270°
2026-04-26 04:29 -6.29835 110.42108 25857 ft 437 kts 270°
2026-04-26 04:29 -6.29846 110.39144 25857 ft 414 kts 270°
2026-04-26 04:30 -6.29856 110.36284 25861 ft 414 kts 270°
2026-04-26 04:30 -6.29865 110.33440 25861 ft 411 kts 270°
2026-04-26 04:30 -6.29874 110.30573 25881 ft 410 kts 270°
2026-04-26 04:30 -6.29883 110.27712 25877 ft 409 kts 270°
2026-04-26 04:31 -6.29894 110.24844 25877 ft 409 kts 270°
2026-04-26 04:31 -6.29904 110.21977 25877 ft 409 kts 270°
2026-04-26 04:31 -6.29915 110.19105 25885 ft 409 kts 270°
2026-04-26 04:31 -6.29927 110.16245 25877 ft 409 kts 270°
2026-04-26 04:32 -6.29938 110.13381 25886 ft 409 kts 270°
2026-04-26 04:32 -6.29947 110.10516 25879 ft 410 kts 270°
2026-04-26 04:32 -6.29956 110.07652 25887 ft 410 kts 270°
2026-04-26 04:32 -6.29963 110.04816 25879 ft 410 kts 270°
2026-04-26 04:33 -6.29971 110.01950 25886 ft 410 kts 270°
2026-04-26 04:33 -6.29978 109.99091 25884 ft 410 kts 270°
2026-04-26 04:33 -6.29984 109.96227 25890 ft 410 kts 270°
2026-04-26 04:33 -6.29991 109.93415 25889 ft 410 kts 270°
2026-04-26 04:34 -6.29997 109.90550 25894 ft 410 kts 270°
2026-04-26 04:34 -6.30004 109.87682 25888 ft 410 kts 270°
2026-04-26 04:34 -6.30010 109.84827 25894 ft 410 kts 270°
2026-04-26 04:34 -6.30016 109.81953 25888 ft 410 kts 270°
2026-04-26 04:35 -6.30022 109.79122 25891 ft 410 kts 270°
2026-04-26 04:35 -6.30028 109.76248 25887 ft 410 kts 270°
2026-04-26 04:35 -6.30033 109.73383 25888 ft 410 kts 270°
2026-04-26 04:35 -6.30039 109.70522 25885 ft 410 kts 270°
2026-04-26 04:36 -6.30044 109.67650 25884 ft 410 kts 270°
2026-04-26 04:36 -6.30050 109.64772 25883 ft 410 kts 270°
2026-04-26 04:36 -6.30054 109.61951 25891 ft 410 kts 270°
2026-04-26 04:36 -6.30059 109.59090 25891 ft 410 kts 270°
2026-04-26 04:37 -6.30064 109.56226 25889 ft 410 kts 270°
2026-04-26 04:37 -6.30068 109.53353 25885 ft 410 kts 270°
2026-04-26 04:37 -6.30073 109.50484 25888 ft 410 kts 270°
2026-04-26 04:37 -6.30077 109.47620 25886 ft 410 kts 270°
2026-04-26 04:38 -6.30110 109.44759 25883 ft 410 kts 266°
2026-04-26 04:38 -6.30809 109.41996 25890 ft 408 kts 244°
2026-04-26 04:38 -6.32386 109.39686 25892 ft 404 kts 225°
2026-04-26 04:38 -6.34427 109.37882 25867 ft 379 kts 217°
2026-04-26 04:39 -6.36341 109.36173 25858 ft 359 kts 227°
2026-04-26 04:39 -6.37802 109.34213 25856 ft 342 kts 239°
2026-04-26 04:39 -6.38784 109.32093 25857 ft 327 kts 252°
2026-04-26 04:39 -6.39264 109.29884 25864 ft 321 kts 265°
2026-04-26 04:40 -6.39294 109.27654 25870 ft 318 kts 270°
2026-04-26 04:40 -6.39567 109.25458 25802 ft 320 kts 259°
2026-04-26 04:40 -6.40081 109.23223 25593 ft 337 kts 255°
2026-04-26 04:40 -6.40736 109.20909 25380 ft 359 kts 253°
2026-04-26 04:41 -6.41488 109.18433 25169 ft 378 kts 252°
2026-04-26 04:41 -6.42266 109.15882 24949 ft 384 kts 253°
2026-04-26 04:41 -6.43035 109.13311 24728 ft 384 kts 253°
2026-04-26 04:41 -6.43786 109.10736 24512 ft 383 kts 253°
2026-04-26 04:42 -6.44521 109.08165 24312 ft 382 kts 254°
2026-04-26 04:42 -6.45244 109.05602 24114 ft 381 kts 254°
2026-04-26 04:42 -6.45962 109.03039 23934 ft 379 kts 254°
2026-04-26 04:42 -6.46673 109.00491 23875 ft 378 kts 254°
2026-04-26 04:43 -6.47378 108.97968 23867 ft 378 kts 254°
2026-04-26 04:43 -6.48088 108.95426 23865 ft 378 kts 254°
2026-04-26 04:43 -6.48799 108.92880 23868 ft 378 kts 254°
2026-04-26 04:43 -6.49511 108.90336 23870 ft 378 kts 254°
2026-04-26 04:44 -6.50224 108.87786 23873 ft 378 kts 254°
2026-04-26 04:44 -6.50935 108.85246 23869 ft 378 kts 254°
2026-04-26 04:44 -6.51648 108.82700 23871 ft 378 kts 254°
2026-04-26 04:44 -6.52359 108.80157 23870 ft 378 kts 254°
2026-04-26 04:45 -6.53071 108.77610 23870 ft 378 kts 254°
2026-04-26 04:45 -6.53786 108.75054 23741 ft 378 kts 254°
2026-04-26 04:45 -6.54496 108.72514 23530 ft 377 kts 254°
2026-04-26 04:45 -6.55196 108.70009 23285 ft 376 kts 254°
2026-04-26 04:46 -6.55904 108.67477 23046 ft 375 kts 254°
2026-04-26 04:46 -6.56607 108.64957 22785 ft 374 kts 254°
2026-04-26 04:46 -6.57308 108.62448 22528 ft 372 kts 254°
2026-04-26 04:46 -6.58009 108.59938 22277 ft 371 kts 254°
2026-04-26 04:47 -6.58712 108.57435 22025 ft 370 kts 253°
2026-04-26 04:47 -6.59591 108.55009 21781 ft 369 kts 248°
2026-04-26 04:47 -6.60547 108.52622 21535 ft 367 kts 247°
2026-04-26 04:47 -6.61541 108.50256 21295 ft 366 kts 246°
2026-04-26 04:48 -6.63577 108.45571 20811 ft 364 kts 246°
2026-04-26 04:48 -6.64585 108.43275 20581 ft 363 kts 246°
2026-04-26 04:48 -6.65598 108.40961 20344 ft 358 kts 246°
2026-04-26 04:49 -6.66586 108.38699 20099 ft 350 kts 246°
2026-04-26 04:49 -6.67561 108.36460 19875 ft 347 kts 246°
2026-04-26 04:49 -6.68524 108.34245 19656 ft 345 kts 246°
2026-04-26 04:49 -6.69483 108.32035 19420 ft 344 kts 246°
2026-04-26 04:50 -6.70440 108.29830 19192 ft 343 kts 246°
2026-04-26 04:50 -6.71379 108.27666 18969 ft 341 kts 246°
2026-04-26 04:50 -6.72326 108.25481 18747 ft 341 kts 246°
2026-04-26 04:50 -6.73273 108.23298 18522 ft 339 kts 246°
2026-04-26 04:51 -6.74217 108.21121 18301 ft 338 kts 246°
2026-04-26 04:51 -6.75087 108.19113 18103 ft 335 kts 247°
2026-04-26 04:51 -6.75932 108.17175 17802 ft 327 kts 247°
2026-04-26 04:51 -6.76765 108.15217 17580 ft 332 kts 246°
2026-04-26 04:52 -6.77594 108.13278 17330 ft 313 kts 247°
2026-04-26 04:52 -6.78478 108.11212 17121 ft 327 kts 246°
2026-04-26 04:52 -6.79395 108.09109 16876 ft 330 kts 246°
2026-04-26 04:52 -6.80322 108.06992 16628 ft 329 kts 246°
2026-04-26 04:53 -6.81245 108.04883 16389 ft 329 kts 246°
2026-04-26 04:53 -6.82124 108.02796 16150 ft 328 kts 250°
2026-04-26 04:53 -6.82685 108.00581 15920 ft 326 kts 258°
2026-04-26 04:53 -6.83078 107.98330 15663 ft 326 kts 262°
2026-04-26 04:54 -6.83380 107.96076 15248 ft 324 kts 263°
2026-04-26 04:54 -6.83630 107.93833 14799 ft 322 kts 264°
2026-04-26 04:54 -6.83859 107.91585 14336 ft 320 kts 264°
2026-04-26 04:54 -6.84080 107.89370 13887 ft 318 kts 264°
2026-04-26 04:55 -6.84305 107.87157 13401 ft 317 kts 264°
2026-04-26 04:55 -6.84535 107.84960 12923 ft 314 kts 264°
2026-04-26 04:55 -6.84762 107.82837 12507 ft 312 kts 264°
2026-04-26 04:55 -6.84994 107.80704 12067 ft 310 kts 264°
2026-04-26 04:56 -6.85229 107.78564 11617 ft 308 kts 264°
2026-04-26 04:56 -6.85465 107.76429 11168 ft 305 kts 264°
2026-04-26 04:56 -6.85697 107.74309 10741 ft 304 kts 264°
2026-04-26 04:56 -6.85928 107.72202 10286 ft 302 kts 264°
2026-04-26 04:57 -6.86156 107.70119 9951 ft 297 kts 264°
2026-04-26 04:57 -6.86384 107.68038 9796 ft 300 kts 264°
2026-04-26 04:57 -6.86612 107.65959 9332 ft 298 kts 264°
2026-04-26 04:57 -6.86840 107.63889 8898 ft 296 kts 264°
2026-04-26 04:58 -6.87056 107.61914 8504 ft 293 kts 264°
2026-04-26 04:58 -6.87285 107.59888 8147 ft 288 kts 262°
2026-04-26 04:58 -6.87854 107.58024 7867 ft 279 kts 242°
2026-04-26 04:58 -6.88967 107.56516 7683 ft 262 kts 220°
2026-04-26 04:59 -6.90464 107.55611 7434 ft 242 kts 196°
2026-04-26 04:59 -6.92064 107.55397 7115 ft 226 kts 172°
2026-04-26 04:59 -6.93456 107.55786 6738 ft 210 kts 148°
2026-04-26 04:59 -6.94646 107.56554 6505 ft 199 kts 139°
2026-04-26 05:00 -6.95725 107.57420 6475 ft 198 kts 136°
2026-04-26 05:00 -6.96791 107.58313 6482 ft 200 kts 136°
2026-04-26 05:00 -6.97793 107.59289 6497 ft 200 kts 126°
2026-04-26 05:00 -6.98529 107.60429 6496 ft 196 kts 116°
2026-04-26 05:01 -6.99139 107.61642 6490 ft 194 kts 112°
2026-04-26 05:01 -6.99699 107.62863 6498 ft 192 kts 111°
2026-04-26 05:01 -7.00241 107.64106 6497 ft 194 kts 111°
2026-04-26 05:01 -7.00774 107.65341 6490 ft 190 kts 110°
2026-04-26 05:02 -7.01286 107.66550 6495 ft 187 kts 111°
2026-04-26 05:02 -7.01792 107.67758 6489 ft 184 kts 107°
2026-04-26 05:02 -7.02001 107.68993 6485 ft 171 kts 96°
2026-04-26 05:02 -7.02130 107.70168 6474 ft 164 kts 93°
2026-04-26 05:03 -7.02188 107.71304 6479 ft 162 kts 88°
2026-04-26 05:03 -7.01930 107.72390 6472 ft 162 kts 63°
2026-04-26 05:03 -7.01145 107.73189 6484 ft 165 kts 30°
2026-04-26 05:03 -7.00053 107.73555 6463 ft 168 kts 14°
2026-04-26 05:04 -6.98876 107.73674 6476 ft 170 kts
2026-04-26 05:04 -6.97747 107.73659 6217 ft 161 kts
2026-04-26 05:04 -6.96611 107.73593 5730 ft 165 kts
2026-04-26 05:04 -6.95332 107.73504 5436 ft 205 kts 358°
2026-04-26 05:05 -6.93982 107.73255 5196 ft 183 kts 341°
2026-04-26 05:05 -6.93038 107.72474 4397 ft 178 kts 303°
2026-04-26 05:05 -6.92823 107.71322 3947 ft 166 kts 259°
2026-04-26 05:05 -6.93030 107.70345 4049 ft 122 kts 264°
2026-04-26 05:06 -6.93005 107.69523 3509 ft 125 kts 281°
2026-04-26 05:06 -6.92838 107.68610 3314 ft 104 kts 292°
2026-04-26 05:06 -6.92685 107.68052 2198 ft 0 kts 292°